Location: Unspecified
(40.7945°N, 0.0000°E)
Time: 15:30:08
(UTC+00:00)

Courier 1B - Pass Details

Date: 30 January 2021
Orbit: 962 x 1209 km, 28.3° (Epoch: 07 March)

Event Time Altitude Azimuth Distance (km) Brightness Sun altitude
Rises 01:04:45 0° 257° (WSW) 3,746 - -64.3°
Reaches altitude 10° 01:08:16 10° 241° (WSW) 2,756 - -64.0°
Maximum altitude 01:12:47 19° 197° (SSW) 2,109 - -63.5°
Drops below altitude 10° 01:17:14 10° 153° (SSE) 2,689 - -63.1°
Sets 01:20:36 0° 137° (SE) 3,627 - -62.7°
